Location: Napa Junction
(38.1874°N, 122.2508°W)
Time: 22:28:11
(UTC+00:00)

CENTAUR R/B - Pass Details

Date: 10 December 2024
Orbit: 654 x 1528 km, 63.4° (Epoch: 19 January)

Event Time Altitude Azimuth Distance (km) Brightness Sun altitude
Rises 01:37:02 0° 303° (WNW) 4,513 6.5 -9.4°
Reaches altitude 10° 01:43:38 10° 269° (W) 3,659 6.8 -10.6°
Maximum altitude 01:45:06 10° 259° (W) 3,637 7.0 -10.8°
Drops below altitude 10° 01:46:34 10° 250° (WSW) 3,685 7.1 -11.1°
Sets 01:53:26 0° 215° (SW) 4,652 7.0 -12.4°
